Regional Weather Roundup
Issued by NWS

Home | Current Version | Previous Version | Graphics & Text | Print | Product List | Glossary Off
Versions: 1 2 3 4 5 6 7 8 9 10 11 12 13 14 15 16 17 18 19 20 21 22 23 24 25 26 27 28 29 30 31 32 33 34 35 36 37 38 39 40 41 42 43 44 45 46 47 48 49 50

835
ASUS43 KTOP 081108
RWRKS

WEATHER ROUNDUP FOR KANSAS
NATIONAL WEATHER SERVICE GOODLAND KS
500 AM CST MON FEB 08 2016

NOTE:  "FAIR" INDICATES FEW OR NO CLOUDS BELOW 12,000 FEET WITH NO
SIGNIFICANT WEATHER AND/OR OBSTRUCTIONS TO VISIBILITY.

KSZ001>006-013>018-027>032-041>047-081200-
NORTHWEST KANSAS

CITY           SKY/WX    TMP DP  RH WIND       PRES   REMARKS
GOODLAND       CLEAR     24   9  52 NW20      30.30F WCI  10
HAYS           CLEAR     30  10  43 NW23G30   30.24F WCI  17
HILL CITY      CLEAR     27  15  61 NW21G30   30.26S WCI  13
RUSSELL        CLEAR     30  17  58 NW24      30.21F WCI  16
$$

KSZ061>065-074>080-084>089-081200-
SOUTHWEST KANSAS

CITY           SKY/WX    TMP DP  RH WIND       PRES   REMARKS
DODGE CITY     CLEAR     27  12  53 NW21      30.30S WCI  13
ELKHART          N/A     28  10  46 NW15        N/A  WCI  16
GARDEN CITY    CLEAR     29  12  49 NW20      30.32S WCI  16
GREAT BEND     CLEAR     30  12  47 NW21      30.25S WCI  17
LIBERAL        CLEAR     28  12  50 NW13      30.37R WCI  18
PRATT          CLEAR     28  14  57 NW20      30.26R WCI  14
$$

KSZ066>073-081>083-090>101-081200-
SOUTHEAST KANSAS

CITY           SKY/WX    TMP DP  RH WIND       PRES   REMARKS
CHANUTE        PTCLDY    34  18  52 NW16G23   30.09S WCI  24
COFFEYVILLE    PTCLDY    35  17  47 NW13      30.13S WCI  26
HUTCHINSON     CLEAR     33  16  49 NW16G28   30.20S WCI  23
MEDICINE LODGE   N/A     32  16  51 NW17G24   30.26S WCI  21
NEWTON         PTCLDY    30  16  55 NW20G25   30.16S WCI  18
PARSONS        CLEAR     35  18  49 NW14G23   30.11S WCI  26
WICHITA INTL   PTCLDY    33  18  53 NW17      30.18F WCI  22
WICHITA JABRA  PTCLDY    33  18  53 NW22G30   30.16F WCI  21
WICHITA MCCONL CLEAR     34  17  50 NW15G23   30.16F WCI  24
WINFIELD       CLEAR     33  19  56 NW14      30.19S WCI  23
$$

KSZ007>012-019>026-033>040-048>060-102>105-081200-
NORTHEAST KANSAS

CITY           SKY/WX    TMP DP  RH WIND       PRES   REMARKS
CONCORDIA      MOCLDY    33  18  53 NW15      30.13R WCI  23
EMPORIA        PTCLDY    32  18  56 NW16G29   30.09S WCI  21
LAWRENCE       CLOUDY    35  19  52 NW24G36   30.02S WCI  23
MANHATTAN      CLOUDY    36  20  52 NW10G22   30.11S WCI  28
MARYSVILLE     CLOUDY    34  21  60 NW25G37   30.05S WCI  21
OLATHE IND     CLOUDY    34  20  56 NW13      30.00F WCI  25
OLATHE EXE     CLOUDY    34  19  54 NW16G30   29.99S WCI  24
SALINA         PTCLDY    34  17  50 NW22      30.17S WCI  22
TOPEKA BILLARD CLOUDY    36  16  44 NW18G26   30.04S WCI  26
TOPEKA FORBES  CLOUDY    36  18  48 NW23G32   30.02F WCI  24
$$




USA.gov is the U.S. government's official web portal to all federal, state and local government web resources and services.